Re: [情報] 2022東京電玩展 Xbox直播 9月15日下午5點

看板 Xbox
作者
時間
留言 140則留言,51人參與討論
推噓 57  ( 57推 0噓 83→ )
討論串 2
※ 引述《freaky2586 (freaky2586)》之銘言: : https://news.xbox.com/en-us/2022/08/31/xbox-stream-is-back-tokyo-game-show-2 02 : https://www.youtube.com/channel/UClFyIegrk4g6CFqGYCwTViA/featured : https://i.imgur.com/HoowBb2.jpg
: 微軟公布2022年東京電玩展Xbox直播將在台灣時間9月15日下午5點至6點 : 直播將在東京電玩展官方YouTube播出 : 今年直播微軟表示將帶來Xbox Game Studios出品、合作夥伴的遊戲陣容最新消息更新 : 希望這些最新消息能讓日本、亞洲、全球玩家感到高興 : ------------ : 去年公布AI夢境檔案、暴走大鵝、緋紅連繫登陸XGP : 應該不用期望新作公布,微軟還是主打今年發表會的一年內登陸Xbox與XGP遊戲陣容 https://twitter.com/ignjapan/status/1569945268648542208 https://twitter.com/xboxp3/status/1569943412513640448 https://twitter.com/bondsarah_bond/status/1569842685674127365 https://i.imgur.com/vIA2oDX.jpg
https://i.imgur.com/6275NgA.jpg
https://i.imgur.com/SAVxzu0.jpg
今年東京電玩展老大Phil Spencer與副總Sarah Bond親自飛到日本 日本IGN會在推特與問券蒐集玩家的提問,截止至9月16日上午11點 (台灣時間) 日本IGN東京電玩展的特別節目中生配信直播採訪兩位,直播時間尚未公布 --
※ 發信站: 批踢踢實業坊(ptt.cc), 來自: 42.76.177.130 (臺灣) ※ 文章網址: https://www.ptt.cc/bbs/XBOX/M.1663144928.A.341.html
1Fgambitlin: 看到浪人和旅人2獨佔就賭懶這些日廠 09/14 16:53
2Fmachungxi: 有啥好賭爛,旅人1就上XGP沒上PS就不賭爛? 09/14 16:57
3Flarryyangsen: 旅人2確定了嗎? 09/14 16:58
4Fmachungxi: 軟本來就是要把自己這邊的遊戲做出來,真的要好好整頓 09/14 16:58
5Fmachungxi: 一狗海的工作室但產出效率低落的問題 09/14 16:59
6Falvistan: 浪人跟臥龍是一邊買獨佔 一邊買首日訂閱的感覺 09/14 16:59
7Falvistan: 旅人2應該一樣是很久以後上 09/14 17:00
8Fmachungxi: 不獨佔也是軟自己的政策,不然KT算對三廠都很友善了 09/14 17:00
9Frhox: 把拔多買一點遊戲給我玩 09/14 17:04
10Ffeaze: Xbox這邊也是有三廠限時獨佔的,不過時間偏短,一般都半年 09/14 17:04
11Fkkittles: 老闆親臨現場,肯定是很多好料才敢上台吧 09/14 17:05
12Fkkittles: (是吧) 09/14 17:05
13Ffeaze: 索尼現在三廠真獨佔也是慢慢少了,不過日廠常不上Xbox QQ 09/14 17:06
14Fmachungxi: 我是覺得本來就還是要自己養廠,頂部大作能全平台就上 09/14 17:08
15Fmachungxi: 二三線各自有特色比較實在,除非裝機量有NS好 09/14 17:09
16Fgambitlin: 微軟買GPD1或者花錢請他們移植難道有損害到其他平台玩 09/14 17:12
17Fgambitlin: 家的利益嗎?哪裡一樣?我賭懶的是他們遊戲都做了然後 09/14 17:12
18Fgambitlin: 引擎明明就跨平台的要發行也不是什麼難事,但是他們就 09/14 17:12
19Fgambitlin: 是不發等微軟去跟他們買(或者索尼買獨佔),吃相難看 09/14 17:12
20Fgambitlin: 我不能賭懶嗎? 09/14 17:12
21FEspressoJ: 簽了什麼約這個局外人都不會知道啦, 但是日廠在X盒的優 09/14 17:14
22FEspressoJ: 化真的讓人無法支持. Namco的空戰奇兵7跟FS的幾乎所有 09/14 17:15
23FEspressoJ: 魂作都根本沒好好發揮X1X的硬體實力 09/14 17:15
24Fmachungxi: 但旅人1就是沒上PS阿,怎麼證明軟就沒簽類似條款 09/14 17:19
25Fmachungxi: 或是在盒子這裡成績過差所以改投PS? 09/14 17:20
26Fmachungxi: SE是很投靠SIE沒錯但這黑的沒邏輯,要黑也是FF16 09/14 17:21
27Fgambitlin: 旅人本來switch/pc然後才移植xbox,誰會覺得微軟有買獨 09/14 17:24
28Fgambitlin: 佔XDD這分明是買移植 09/14 17:24
29Fmachungxi: 與其哭邀日廠,軟那狗海工作室現階段沒啥產出才有問題 09/14 17:24
30Fgambitlin: FF也算PS神主牌之一了被買獨佔也是意料之內 09/14 17:25
31Fgambitlin: 微軟工作室的產出只有343比較令人失望吧,其他的服務 09/14 17:27
32Fgambitlin: 型遊戲都經營得很棒啊,而且從以前到現在有誰敢在E3展 09/14 17:27
33Fgambitlin: 出三十幾款還說都是一年內玩得到的遊戲?你說沒產出只 09/14 17:27
34Fgambitlin: 是你自己不喜歡而已吧 09/14 17:27
35Ffreaky2586: 金泰亨的Project Eve也很扯,19年公布會是跨平台遊戲 09/14 17:30
36Ffreaky2586: ,結果變成Sony發行跟主機獨佔 09/14 17:30
37Fmachungxi: 好吧我更正,劇情類遊戲 09/14 17:30
38Ffreaky2586: 微軟向SE買八方、勇鬥創世2登陸XGP,FF13 與尼爾登陸X 09/14 17:32
39Ffreaky2586: GP的Windows Store版本還是微軟自己花錢找外包移植, 09/14 17:32
40Ffreaky2586: 還幫忙修復尼爾Steam版長久以來的問題 09/14 17:32
41Ferichi: 看到有抽15人參加粉絲見面會馬上報名希望有那個運氣qq 09/14 17:38
42Fsumarai: 尼爾steam真的擺爛,沒人出錢就不修 09/14 17:40
43Fsimon978: 微軟爸爸這次又要買哪家? 09/14 17:41
44FRocksmith: 所以是怎樣劇情類遊戲才是遊戲484,其他類型的遊戲都 09/14 17:45
45FRocksmith: 空氣,自己不玩=人家沒做喔 09/14 17:45
46Fmachungxi: 恩我是延續上面的話題,所以一直是談劇情類的沒錯 09/14 17:48
47Fmachungxi: 老實說索那些ACT也不靠日廠,這塊軟就很缺 09/14 17:50
48Fmachungxi: 抓我敘述不清沒差,但又不會改變亞洲甚至台灣本身就比 09/14 17:51
49Fmachungxi: 較吃那類的劇情遊戲 09/14 17:52
50Fhorseorange: 兩大咖跑過去要端什麼肉出來呢 09/14 17:57
51Fderay: 親自飛耶 希望能在亞洲市場重新站穩 09/14 17:59
52FTETUO: 不期不待不受傷害,日廠哪次不是擺出客套的樣子,結果本命 09/14 18:00
53FTETUO: 作還是上PS/NS平台,雖然現在改善很多了,我是有跨XB就當作 09/14 18:00
54FTETUO: 撿到沒有也沒差的心態。 09/14 18:00
55Fmachungxi: 是說Nier中文是SIET做,steam優化是軟做的 09/14 18:12
56Fmachungxi: SE在(?) 09/14 18:12
57Fepisode666: 直接在推特上問為啥每次都xbox獨不佔啊,不過我看IGN 09/14 18:15
58Fepisode666: japan也不會去問的 09/14 18:15
59Faa08175: 為什麼? 老大都解釋這麼多次了獨佔跟微軟政策走向不同, 09/14 18:18
60Faa08175: 就粉絲還一直在吵= = 09/14 18:18
61Faa08175: 兩大咖親飛,是小島新作要公開消息嗎? 09/14 18:18
62Fepisode666: 問題不是獨佔是被獨不佔 09/14 18:22
63Fslimu0001: 索尼:微軟獨佔遊戲破壞玩家遊戲體驗,但我可以獨佔喔 09/14 18:24
64Fslimu0001: ,p能你不能 09/14 18:24
65Frucarl: 鍋貼2凶盒獨不占笑死 09/14 18:25
66Ffeaze: 今年微軟本家新作疲軟沒錯,但我玩也玩了不少劇情類,如As 09/14 18:27
67Ffeaze: Dusk Falls、Immortality就是最近Xbox的劇情類遊戲~ 09/14 18:27
68FAvier: 希望過去能討論很棒合作 09/14 18:28
69Falanjiang: 本家疲軟歸疲軟,XGP首日還是好玩 09/14 18:39
70Falanjiang: 例如最近的Tinykin 09/14 18:39
71Falanjiang: 像星空和Redfall都移到2023,如果不再delay 09/14 18:40
72Falanjiang: 2023絕對不軟吧XD 09/14 18:41
73Fbamm: 明天發表會出面放個大招啊 09/14 18:42
74Ffirefox13: 習慣了,三廠總是PS/NS/PC,就是沒有XB不然就是XB要等 09/14 19:01
75Ffirefox13: 很久很久很久微軟只好花錢跪求廠商出XB版,這樣結果誰 09/14 19:01
76Ffirefox13: 能接受的,就算拿白金還有101那個Xb難開發的理由案例, 09/14 19:01
77Ffirefox13: 日廠通常都不太願意出海,要怪微軟嗎?還是日廠自己想 09/14 19:01
78Ffirefox13: 不開?微軟去年TGS特別拉了日本200獨立工作室都有進展 09/14 19:01
79Ffirefox13: 就那些廠商裝死,不然就是SE這種賣完轉身伸手要錢的 09/14 19:01
80Fsinfe: 浪人2024 ps5才有得玩我笑都來不及了 09/14 19:23
81FFormsan: 2024真的很久 但獨佔三小幹 09/14 19:54
82Ficeranger: 特地飛到日本,一定是跟日廠或是日系遊戲有關係啊啊啊 09/14 20:11
83Ficeranger: 說不定晚了兩天宣布八方2上xgp,打臉獨不佔XD 09/14 20:13
84FHasanieer: 一堆日廠獨不佔還要去貼冷屁股 慘 09/14 20:19
85Fgambitlin: 另外我覺得微軟2022一點都不弱,XGP新遊戲根本玩不完, 09/14 20:36
86Fgambitlin: 而且還可以玩到醍醐味就換遊戲,哪有這麼爽的 09/14 20:36
87Fsmik: 關鍵還是看明年,PS5 漲價 09/14 20:58
88Fsmik: 效益後會不會有玩家跳到XS 09/14 20:58
89Fsmik: X陣營,還有XSX自己出貨量 09/14 20:58
90Fsmik: 也要快跟上,這些達成後, 09/14 20:58
91Fsmik: 市佔率有了,3場也不敢放掉 09/14 20:58
92Fsmik: XBOX 09/14 20:58
93Fsmik: 廠 09/14 20:58
94Ffaang: 木村之龍確定上Steam了 那XGP也來一下吧 09/14 21:04
95Ff16leon: https://i.imgur.com/xpEabob.jpg 09/14 21:37
96Ff16leon: 大概就發表這個遊戲吧 09/14 21:38
97Fvict1: 其實這世代市占只要打平PS5出貨量,不用怕第三方不移植 09/15 11:00
98Fan138: Dl預購不用幻想xgp了 09/15 12:57
99Fwaeqs: 剛才注意到鍊金術士都沒上過xbox 看來萊莎要玩ns了 09/15 13:23
100Flaipenguin: 日廠發展去NS看那個銷量也知道不意外拉 09/15 13:39
101Flaipenguin: 至於PS...就當作他們習慣在PS那邊做遊戲了 09/15 13:39
102Flaipenguin: XBOX會這樣也只能說之前直接放生掉擺爛的錯了 09/15 13:41
103Flaipenguin: 不過現在換SIE大頭有點不想理日本,也許有機會扭轉? 09/15 13:41
104Fepisode666: 可是某家史開頭的公司還是硬貼PS啊 09/15 14:23
105Fe49523: 所以變手遊廠了 09/15 14:24
106FTETUO: 就指標意義大於實際市場作用,要講古以前Xbox360也不是沒努 09/15 14:33
107FTETUO: 力過,拉攏日廠給錢給資源,換來完整版/續作獨不佔的歷史大 09/15 14:33
108FTETUO: 家都很熟悉了。當年One首發失利自家後院失火,無法顧及其他 09/15 14:33
109FTETUO: 地區,不只亞洲延遲一年直接放生,連歐洲市場也有氣無力。 09/15 14:33
110FTETUO: 要打破日本抱團挺自家人的情誼,除非像蘋果iphone等級黑船 09/15 14:33
111FTETUO: 來襲才有機會反轉。 09/15 14:33
112Ficeranger: xgp 已經算是黑船等級的服務了 09/15 15:29
113Fan138: 隔壁也有ps+ 09/15 15:42
114Fhidexjapan: SE從PS拿到的錢更多阿,不然XGP還不是拿了不少SE 09/15 15:57
115Ffreaky2586: 今年直播未免太有料了吧… 09/15 17:23
116Ffaang: 是因為大部分人在上班嗎,沒有留言串 XD 09/15 17:29
117Fangelpeace: 我在等文字轉播,竟然靜悄悄 XD 09/15 17:31
118Ffaang: 二之國系列上XGP 09/15 17:34
119Ffaang: 戰場的賦格曲 XGP 09/15 17:35
120Ffaang: 死亡循環 XGP 9/20 09/15 17:37
121FHCracker: 腦殘troll 被打臉好開心 09/15 17:44
122Fkurakisho: 去C Chat 串了吧 09/15 17:44
123Fepisode666: 廖添丁(笑 09/15 17:44
124Falanjiang: 賦格曲和死亡循環讚喔 09/15 17:51
125Falanjiang: GUILTY GEAR -STRIVE 2023上XGP 09/15 17:52
126Falanjiang: 這次好像沒有很厲害 09/15 17:59
127Fwei33huang: 縫合寶可夢蠻好笑XD 09/15 17:59
128Fewa43: 楊桃沙冷飯山寨楊桃沙 就驚喜感無限趨近零的XGP廣告吧 09/15 18:00
129Fcliffwun1027: 不會啊,死亡循環終於來了我超爽的 09/15 18:17
130Fevolution862: 死亡循環神作 09/15 18:22
131FLeBlowJob23: 可惡 死亡循環不知道要玩哪邊的 兩邊都有包 09/15 18:27
132Ficeranger: 打臉XDDD 09/15 18:42
133Fwalkxd136: 包兩邊的,看你手把有沒有要求阿 09/15 18:58
134Fwalkxd136: 我是玩pc的用滑鼠 09/15 18:59
135FLeBlowJob23: 死亡循環這個更新是xbox獨佔嗎 09/15 19:05
136Fzsyian: 剛下班看完了,好猛啊... 09/15 19:35
137Fenjoi: 全平台都會更新吧 09/15 21:40
138Fhatebus: 好扯喔 一堆xgp 09/15 22:42
139FGimmeTempo: 所以我說那個審判系列呢 09/15 23:41
140FHappyfeetgo: 很棒推 10/05 16:29

完整討論串

57 >> Re: [情報] 2022東京電玩展 Xbox直播 9月15日下午5點
140 xbox 2022-09-14 16:42

XBOX 最新熱門文章

49 [閒聊] XBOX 手把耐用度
100 xbox 2022-11-22 10:42